BMCB-28 Weather Reports


Display with metric or nautical units.
time (UTC)temp
F
wind
direction
speed
MPH
gust
MPH
rain 1hr
in
rain 24hr
in
rain mn
in
humidity
%
barometer
mb
20260503021046 48 0 0.0 0.0 0.00 0.18 0.00 99 1015.7
20260503020043 48 0 0.0 0.0 0.00 0.18 0.00 99 1015.8
20260503015040 48 0 0.0 0.0 0.00 0.18 0.00 99 1015.9
20260503014043 48 0 0.0 0.0 0.00 0.18 0.00 99 1016.0
20260503013046 49 0 0.0 0.0 0.00 0.18 0.00 99 1016.0
20260503011043 49 0 0.0 0.0 0.00 0.18 0.00 99 1016.1
20260503010045 49 0 0.0 0.0 0.00 0.18 0.00 99 1016.2
20260503005048 49 0 0.0 0.0 0.00 0.18 0.00 99 1016.2
20260503004044 49 0 0.0 0.0 0.00 0.18 0.00 99 1016.3
20260503001046 50 0 0.0 0.0 0.00 0.18 0.00 99 1016.5
20260503000056 50 0 0.0 0.0 0.00 0.18 0.00 99 1016.6
20260502235056 50 0 0.0 0.0 0.00 0.18 0.00 99 1016.7
20260502234054 50 0 0.0 0.0 0.00 0.18 0.00 99 1016.7
20260502233054 50 0 0.0 0.0 0.00 0.18 0.00 99 1016.7
20260502232057 50 0 0.0 0.0 0.00 0.18 0.00 99 1016.8
20260502231052 50 0 0.0 0.0 0.00 0.18 0.00 99 1016.8
20260502224053 50 0 0.0 0.0 0.00 0.18 0.00 99 1017.0
20260502223056 51 0 0.0 0.0 0.00 0.18 0.00 99 1016.9
20260502221055 51 0 0.0 0.0 0.00 0.18 0.00 99 1017.0
20260502220052 51 0 0.0 0.0 0.00 0.18 0.00 99 1017.0
20260502215103 51 0 0.0 0.0 0.00 0.18 0.18 98 1017.1
20260502214059 51 0 0.0 0.0 0.00 0.18 0.18 98 1017.0
20260502213059 51 0 0.0 0.0 0.00 0.18 0.18 98 1017.0
20260502212059 52 0 0.0 0.0 0.00 0.18 0.18 98 1017.0
20260502211059 52 0 0.0 0.0 0.00 0.18 0.18 98 1016.9
20260502210057 53 0 0.0 0.0 0.00 0.18 0.18 98 1016.9
20260502204100 53 0 0.0 0.0 0.00 0.18 0.18 98 1016.8
20260502202105 54 0 0.0 0.0 0.00 0.18 0.18 98 1016.9
20260502200103 55 0 0.0 0.0 0.00 0.18 0.18 98 1016.9
20260502195052 55 0 0.0 0.0 0.00 0.18 0.18 98 1016.9
20260502194051 55 0 0.0 0.0 0.00 0.18 0.18 98 1016.9
20260502193058 56 0 0.0 0.0 0.00 0.18 0.18 97 1016.9
20260502190059 56 0 0.0 0.0 0.00 0.18 0.18 97 1016.6
20260502185058 56 0 0.0 0.0 0.00 0.18 0.18 97 1016.8
20260502184056 56 0 0.0 0.0 0.00 0.18 0.18 97 1017.0
20260502183057 57 0 0.0 0.0 0.00 0.18 0.18 97 1017.1
20260502182054 57 0 0.0 0.0 0.00 0.18 0.18 97 1017.2
20260502181055 56 0 0.0 0.0 0.01 0.18 0.18 96 1017.1
20260502164052 59 0 0.0 0.0 0.13 0.13 0.13 75 1017.1
20260502163051 63 0 0.0 0.0 0.10 0.10 0.10 74 1016.7
20260502162053 66 0 0.0 0.0 0.05 0.05 0.05 68 1016.1
20260502161053 69 0 0.0 0.0 0.00 0.00 0.00 55 1015.8
20260502152052 71 0 0.0 0.0 0.00 0.00 0.00 50 1016.1
20260502151046 71 0 0.0 0.0 0.00 0.00 0.00 50 1016.2
20260502122048 69 0 0.0 0.0 0.00 0.00 0.00 56 1018.7
20260502115046 67 0 0.0 0.0 0.00 0.00 0.00 57 1019.3
20260502114047 68 0 0.0 0.0 0.00 0.00 0.00 54 1019.2
20260502113048 69 0 0.0 0.0 0.00 0.00 0.00 52 1019.1
20260502112049 69 0 0.0 0.0 0.00 0.00 0.00 53 1019.1
20260502111049 68 0 0.0 0.0 0.00 0.00 0.00 53 1019.3
20260502110044 69 0 0.0 0.0 0.00 0.00 0.00 52 1019.2
20260502105049 70 0 0.0 0.0 0.00 0.00 0.00 52 1019.3
20260502104046 68 0 0.0 0.0 0.00 0.00 0.00 53 1019.6
20260502103048 68 0 0.0 0.0 0.00 0.00 0.00 52 1019.7
20260502102049 68 0 0.0 0.0 0.00 0.00 0.00 53 1019.8
20260502071045 56 0 0.0 0.0 0.00 0.00 0.00 56 1021.8
20260502070041 55 0 0.0 0.0 0.00 0.00 0.00 57 1022.1
20260502065046 55 0 0.0 0.0 0.00 0.00 0.00 59 1022.3
20260502064047 54 0 0.0 0.0 0.00 0.00 0.00 60 1022.4
20260502062047 53 0 0.0 0.0 0.00 0.00 0.00 63 1022.7
20260502061043 53 0 0.0 0.0 0.00 0.00 0.00 63 1022.7
20260502060048 53 0 0.0 0.0 0.00 0.00 0.00 65 1022.8
20260502055044 52 0 0.0 0.0 0.00 0.00 0.00 65 1022.9
20260502054045 50 0 0.0 0.0 0.00 0.00 0.00 64 1023.0
20260502053045 50 0 0.0 0.0 0.00 0.00 0.00 67 1023.0
20260502052046 49 0 0.0 0.0 0.00 0.00 0.00 67 1023.1
20260502051042 46 0 0.0 0.0 0.00 0.00 0.00 68 1023.3
20260502045043 43 0 0.0 0.0 0.00 0.00 0.00 75 1023.6
20260502043045 42 0 0.0 0.0 0.00 0.00 0.00 75 1023.8
20260502042038 42 0 0.0 0.0 0.00 0.00 0.00 74 1023.6
20260502041041 42 0 0.0 0.0 0.00 0.00 0.00 73 1023.7
20260502040045 42 0 0.0 0.0 0.00 0.00 0.00 73 1023.9
20260502035047 42 0 0.0 0.0 0.00 0.00 0.00 74 1024.1
20260502034042 42 0 0.0 0.0 0.00 0.00 0.00 74 1024.2
20260502033043 42 0 0.0 0.0 0.00 0.00 0.00 73 1024.0
20260502031047 42 0 0.0 0.0 0.00 0.00 0.00 73 1024.1
20260502030044 42 0 0.0 0.0 0.00 0.00 0.00 72 1024.2
20260502024044 42 0 0.0 0.0 0.00 0.00 0.00 71 1024.2
20260502023047 42 0 0.0 0.0 0.00 0.00 0.00 70 1024.3
20260502022046 42 0 0.0 0.0 0.00 0.00 0.00 70 1024.3